Location: Quedlinburg
(51.7921°N, 11.1414°E)
Time: 09:09:11
(UTC+02:00)

RS-44 - Pass Details

Date: 17 March 2026
Orbit: 1175 x 1510 km, 82.5° (Epoch: 17 April)

Event Time Altitude Azimuth Distance (km) Brightness Sun altitude
Rises 03:02:17 0° 347° (NNW) 4,391 ? -29.7°
Reaches altitude 10° 03:05:02 10° 345° (NNW) 3,457 ? -29.4°
Maximum altitude 03:13:13 65° 266° (W) 1,567 ? -28.4°
Enters shadow 03:15:00 54° 218° (SW) 1,720 ? -28.2°
